EJU085 EDDS-LOWI

Flight info

Callsign EJU085
Flight time 0h 38m
Altitude 19000
Route ABTAL4H/07 ABTAL L173 RIXED Y161 MANAL M736 TULSI TULSI3A
Aircraft A319/M-SDE3FGHIRWY/LB1

Departure

Time 2026-05-01 13:47
Airport Stuttgart Airport (EDDS)

Arrival

Time 2026-05-01 14:25
Airport Innsbruck Airport (LOWI)
Time Latitude Longitude Altitude Speed Heading
2026-05-01 13:10 48.68941 9.19720 1288 ft 0 kts 343°
2026-05-01 13:40 48.68933 9.19724 1285 ft 3 kts 343°
2026-05-01 13:40 48.68914 9.19732 1291 ft 3 kts 347°
2026-05-01 13:40 48.68894 9.19737 1291 ft 3 kts
2026-05-01 13:40 48.68877 9.19733 1289 ft 3 kts 40°
2026-05-01 13:41 48.68870 9.19723 1289 ft 0 kts 75°
2026-05-01 13:41 48.68870 9.19722 1289 ft 0 kts 75°
2026-05-01 13:43 48.68872 9.19730 1289 ft 3 kts 75°
2026-05-01 13:44 48.68883 9.19789 1285 ft 9 kts 75°
2026-05-01 13:44 48.68866 9.19871 1286 ft 9 kts 147°
2026-05-01 13:44 48.68808 9.19920 1285 ft 10 kts 147°
2026-05-01 13:44 48.68745 9.19968 1288 ft 10 kts 164°
2026-05-01 13:45 48.68673 9.19990 1288 ft 11 kts 168°
2026-05-01 13:45 48.68608 9.20040 1285 ft 11 kts 129°
2026-05-01 13:45 48.68600 9.20151 1285 ft 11 kts 73°
2026-05-01 13:45 48.68602 9.20161 1288 ft 0 kts 73°
2026-05-01 13:46 48.68608 9.20190 1287 ft 18 kts 73°
2026-05-01 13:46 48.68717 9.20764 1288 ft 92 kts 74°
2026-05-01 13:46 48.68952 9.21993 1288 ft 148 kts 73°
2026-05-01 13:46 48.69266 9.23622 1623 ft 166 kts 75°
2026-05-01 13:47 48.69573 9.25324 2327 ft 169 kts 76°
2026-05-01 13:47 48.69891 9.27120 2792 ft 186 kts 77°
2026-05-01 13:47 48.70225 9.29110 3149 ft 207 kts 78°
2026-05-01 13:47 48.70605 9.31341 3761 ft 221 kts 76°
2026-05-01 13:48 48.71042 9.33598 4618 ft 228 kts 77°
2026-05-01 13:48 48.71495 9.35919 5470 ft 231 kts 77°
2026-05-01 13:48 48.71954 9.38232 6335 ft 235 kts 76°
2026-05-01 13:48 48.72429 9.40632 7142 ft 240 kts 75°
2026-05-01 13:49 48.72713 9.43120 7931 ft 241 kts 93°
2026-05-01 13:49 48.72359 9.45575 8796 ft 238 kts 116°
2026-05-01 13:49 48.71479 9.47696 9692 ft 239 kts 131°
2026-05-01 13:49 48.70210 9.49354 10491 ft 246 kts 148°
2026-05-01 13:50 48.68559 9.50373 10859 ft 270 kts 166°
2026-05-01 13:50 48.66639 9.51014 11167 ft 294 kts 166°
2026-05-01 13:50 48.64551 9.51697 11452 ft 318 kts 166°
2026-05-01 13:50 48.62311 9.52432 11679 ft 341 kts 167°
2026-05-01 13:51 48.59936 9.53217 12125 ft 354 kts 166°
2026-05-01 13:51 48.57505 9.54025 12779 ft 360 kts 166°
2026-05-01 13:51 48.55035 9.54847 13430 ft 367 kts 166°
2026-05-01 13:51 48.52549 9.55671 14058 ft 374 kts 166°
2026-05-01 13:52 48.49983 9.56518 14655 ft 379 kts 165°
2026-05-01 13:52 48.47393 9.57377 15305 ft 383 kts 166°
2026-05-01 13:52 48.44774 9.58249 15925 ft 387 kts 166°
2026-05-01 13:52 48.42131 9.59127 16569 ft 390 kts 166°
2026-05-01 13:53 48.39470 9.60010 17211 ft 393 kts 165°
2026-05-01 13:53 48.34085 9.61813 18509 ft 400 kts 162°
2026-05-01 13:53 48.31435 9.63096 19070 ft 401 kts 159°
2026-05-01 13:54 48.28780 9.64452 19589 ft 406 kts 159°
2026-05-01 13:54 48.26089 9.65826 20098 ft 409 kts 159°
2026-05-01 13:54 48.23332 9.67001 20583 ft 416 kts 166°
2026-05-01 13:54 48.20436 9.67494 21058 ft 422 kts 176°
2026-05-01 13:55 48.17478 9.67532 21525 ft 426 kts 175°
2026-05-01 13:55 48.14607 9.68520 22000 ft 425 kts 155°
2026-05-01 13:55 48.12018 9.70654 22473 ft 426 kts 146°
2026-05-01 13:55 48.09434 9.72882 22923 ft 431 kts 150°
2026-05-01 13:56 48.06769 9.74989 23360 ft 434 kts 150°
2026-05-01 13:56 48.04129 9.77077 23788 ft 437 kts 150°
2026-05-01 13:56 48.01429 9.79213 24163 ft 441 kts 150°
2026-05-01 13:56 47.98710 9.81366 24538 ft 444 kts 150°
2026-05-01 13:57 47.96114 9.83865 24867 ft 445 kts 142°
2026-05-01 13:57 47.94453 9.85766 25115 ft 446 kts 139°
2026-05-01 13:57 47.91330 9.89774 25589 ft 448 kts 132°
2026-05-01 13:57 47.89586 9.93572 25923 ft 445 kts 111°
2026-05-01 13:58 47.88894 9.98013 26266 ft 441 kts 89°
2026-05-01 13:58 47.89341 10.02495 26612 ft 438 kts 69°
2026-05-01 13:58 47.90860 10.06403 26948 ft 437 kts 47°
2026-05-01 13:58 47.93239 10.09195 27279 ft 438 kts 26°
2026-05-01 13:59 47.96155 10.10491 27602 ft 441 kts
2026-05-01 13:59 47.99215 10.10102 27918 ft 447 kts 345°
2026-05-01 13:59 48.02009 10.08063 28225 ft 454 kts 324°
2026-05-01 13:59 48.04177 10.04605 28517 ft 461 kts 305°
2026-05-01 14:00 48.05612 10.00301 28808 ft 467 kts 291°
2026-05-01 14:00 48.06296 9.95530 29112 ft 474 kts 275°
2026-05-01 14:00 48.06096 9.90609 29302 ft 476 kts 259°
2026-05-01 14:00 48.04972 9.85981 29324 ft 475 kts 242°
2026-05-01 14:01 48.03016 9.82017 29319 ft 476 kts 225°
2026-05-01 14:01 48.00445 9.79023 29313 ft 475 kts 210°
2026-05-01 14:01 47.97410 9.77125 29310 ft 473 kts 194°
2026-05-01 14:01 47.94120 9.76516 29307 ft 471 kts 177°
2026-05-01 14:02 47.90941 9.77246 29304 ft 469 kts 161°
2026-05-01 14:02 47.87979 9.79248 29299 ft 466 kts 145°
2026-05-01 14:02 47.85513 9.82329 29301 ft 463 kts 130°
2026-05-01 14:02 47.83345 9.85880 29305 ft 463 kts 130°
2026-05-01 14:03 47.79024 9.93001 29301 ft 463 kts 130°
2026-05-01 14:03 47.74684 10.00115 29306 ft 463 kts 130°
2026-05-01 14:04 47.70345 10.07194 29305 ft 463 kts 130°
2026-05-01 14:04 47.66731 10.13071 29297 ft 464 kts 130°
2026-05-01 14:05 47.61648 10.21312 29288 ft 465 kts 130°
2026-05-01 14:05 47.59501 10.24780 29238 ft 448 kts 130°
2026-05-01 14:05 47.57429 10.28122 29099 ft 432 kts 130°
2026-05-01 14:06 47.55317 10.31178 28954 ft 420 kts 138°
2026-05-01 14:06 47.53021 10.33743 28826 ft 407 kts 141°
2026-05-01 14:06 47.50775 10.36201 28660 ft 396 kts 141°
2026-05-01 14:06 47.48577 10.38602 28367 ft 390 kts 141°
2026-05-01 14:07 47.46406 10.40975 27989 ft 386 kts 140°
2026-05-01 14:07 47.44257 10.43328 27587 ft 383 kts 140°
2026-05-01 14:07 47.42120 10.45665 27165 ft 381 kts 140°
2026-05-01 14:08 47.37699 10.49831 26345 ft 379 kts 148°
2026-05-01 14:08 47.35383 10.51674 25917 ft 377 kts 148°
2026-05-01 14:08 47.33104 10.53477 25774 ft 366 kts 148°
2026-05-01 14:08 47.30893 10.55220 25617 ft 356 kts 148°
2026-05-01 14:09 47.28687 10.56963 24880 ft 365 kts 149°
2026-05-01 14:09 47.26279 10.58218 24351 ft 371 kts 169°
2026-05-01 14:09 47.23701 10.58194 23930 ft 373 kts 190°
2026-05-01 14:09 47.21278 10.56887 23432 ft 372 kts 211°
2026-05-01 14:10 47.19312 10.54462 22970 ft 368 kts 231°
2026-05-01 14:10 47.18021 10.51252 22514 ft 363 kts 252°
2026-05-01 14:10 47.17532 10.47662 22120 ft 356 kts 272°
2026-05-01 14:10 47.17839 10.44110 21728 ft 347 kts 291°
2026-05-01 14:11 47.18445 10.41960 21438 ft 342 kts 303°
2026-05-01 14:11 47.22375 10.36666 20420 ft 330 kts 332°
2026-05-01 14:11 47.24379 10.35026 20013 ft 329 kts 335°
2026-05-01 14:12 47.26408 10.33489 19626 ft 327 kts 336°
2026-05-01 14:12 47.27755 10.32491 19381 ft 326 kts 336°
2026-05-01 14:12 47.29779 10.30988 19016 ft 325 kts 336°
2026-05-01 14:12 47.31842 10.29680 18666 ft 321 kts 347°
2026-05-01 14:13 47.34034 10.29226 18280 ft 316 kts
2026-05-01 14:13 47.36189 10.29712 17896 ft 312 kts 19°
2026-05-01 14:13 47.38135 10.31065 17496 ft 309 kts 35°
2026-05-01 14:13 47.39723 10.33163 17109 ft 306 kts 51°
2026-05-01 14:14 47.40843 10.35813 16669 ft 303 kts 66°
2026-05-01 14:14 47.41418 10.38790 16202 ft 302 kts 82°
2026-05-01 14:14 47.41415 10.41882 15758 ft 302 kts 97°
2026-05-01 14:14 47.40835 10.44860 15297 ft 303 kts 112°
2026-05-01 14:15 47.39709 10.47495 14878 ft 305 kts 128°
2026-05-01 14:15 47.38124 10.49577 14482 ft 307 kts 143°
2026-05-01 14:15 47.36311 10.51242 14105 ft 308 kts 147°
2026-05-01 14:15 47.34429 10.52746 13783 ft 307 kts 150°
2026-05-01 14:16 47.32558 10.54155 13466 ft 304 kts 149°
2026-05-01 14:16 47.30887 10.55904 13329 ft 289 kts 133°
2026-05-01 14:16 47.29686 10.58189 13199 ft 277 kts 116°
2026-05-01 14:16 47.28999 10.60782 13067 ft 267 kts 100°
2026-05-01 14:17 47.28820 10.63443 12925 ft 257 kts 86°
2026-05-01 14:17 47.28913 10.66060 12657 ft 255 kts 85°
2026-05-01 14:17 47.29020 10.68670 12369 ft 254 kts 85°
2026-05-01 14:17 47.29128 10.71267 12089 ft 254 kts 85°
2026-05-01 14:18 47.29233 10.73865 11810 ft 252 kts 85°
2026-05-01 14:18 47.29334 10.76446 11523 ft 252 kts 85°
2026-05-01 14:18 47.29434 10.79010 11202 ft 250 kts 86°
2026-05-01 14:18 47.29500 10.80700 11053 ft 248 kts 87°
2026-05-01 14:19 47.29634 10.84093 10709 ft 246 kts 86°
2026-05-01 14:19 47.29733 10.86592 10419 ft 243 kts 86°
2026-05-01 14:19 47.29828 10.89044 10141 ft 242 kts 88°
2026-05-01 14:19 47.29924 10.91516 9840 ft 241 kts 87°
2026-05-01 14:20 47.30017 10.93943 9683 ft 234 kts 87°
2026-05-01 14:20 47.30195 10.98625 9291 ft 221 kts 87°
2026-05-01 14:20 47.30277 11.00828 9077 ft 212 kts 87°
2026-05-01 14:21 47.30357 11.02948 8867 ft 200 kts 86°
2026-05-01 14:21 47.30428 11.04945 8491 ft 194 kts 87°
2026-05-01 14:21 47.30407 11.06932 7996 ft 194 kts 94°
2026-05-01 14:22 47.29630 11.10696 7252 ft 192 kts 114°
2026-05-01 14:22 47.29055 11.12488 6808 ft 195 kts 114°
2026-05-01 14:22 47.28464 11.14319 6319 ft 201 kts 114°
2026-05-01 14:22 47.27848 11.16200 5794 ft 206 kts 113°
2026-05-01 14:23 47.27204 11.18132 5146 ft 212 kts 116°
2026-05-01 14:23 47.26553 11.20071 4524 ft 209 kts 114°
2026-05-01 14:23 47.26034 11.22010 4001 ft 203 kts 105°
2026-05-01 14:23 47.25699 11.23998 3576 ft 197 kts 99°
2026-05-01 14:24 47.25521 11.25973 2975 ft 192 kts 92°
2026-05-01 14:24 47.25463 11.27864 2666 ft 177 kts 89°
2026-05-01 14:24 47.25538 11.29613 2447 ft 160 kts 83°
2026-05-01 14:24 47.25676 11.31156 2220 ft 145 kts 79°
2026-05-01 14:25 47.25825 11.32560 2018 ft 133 kts 80°
2026-05-01 14:25 47.25963 11.33840 1911 ft 114 kts 81°
2026-05-01 14:25 47.26057 11.34689 1904 ft 49 kts 82°
2026-05-01 14:25 47.26097 11.35127 1899 ft 29 kts 79°
2026-05-01 14:26 47.26063 11.35256 1907 ft 12 kts 164°
2026-05-01 14:26 47.25972 11.35280 1907 ft 6 kts 170°
2026-05-01 14:26 47.25934 11.35290 1907 ft 6 kts 171°
2026-05-01 14:27 47.25901 11.35268 1907 ft 5 kts 239°
2026-05-01 14:27 47.25895 11.35216 1907 ft 5 kts 264°
2026-05-01 14:27 47.25894 11.35205 1907 ft 0 kts 264°
2026-05-01 14:28 47.25873 11.35163 1903 ft 5 kts 196°
2026-05-01 14:28 47.25839 11.35168 1907 ft 3 kts 174°
2026-05-01 14:28 47.25834 11.35169 1897 ft 0 kts 174°